FALCON 9 DEB (48607 NORAD) Tracking and Keplerian Element Data

This shows tracking and keplerian element data for the satellite.

Feedback or suggestion? Click here.




ElementValue
Catalog48607
NameFALCON 9 DEB
Epoch Orbit2269
Epoch Day287.39224777
Epoch Year2021
RAAN164.3148
Inclination53.0387
Eccentricity0.001456
Argument of Perigee38.436
Mean Anonmoly321.7659
Mean Motion14.97525954
Decay Rate5.02E-06
L11 48607U 21041BG 21287.39224777 .00000502 00000-0 64885-4 0 9996
L22 48607 53.0387 164.3148 0014560 38.4360 321.7659 14.97525954 22693

Live tracking and technical data element details for FALCON 9 DEB (NORAD 48607). FALCON 9 DEB can be tracked NOW for your location showing map with azimuth and elevation plus other details from your city location.

Track the satellite on the map from your city or location and see movement details for azimuth, elevation, latitude, longitude, range, height, and movement on the map or in text.







IsCatalogInMostPopularTable: catalog: 48607, numindb: 33
Update: records affected: 1



GetName: 48607 FALCON 9 DEB

Hit Count: updated at: Tue, 19 Oct 2021 08:27:10 GMT